Track COSMOS 642 now! 10-day predictions COSMOS 642 is classified as:
1 07266U 74024B 21110.93943264 -.00000006 00000-0 58335-4 0 9998 2 07266 74.0183 330.7735 0103757 200.4764 265.9865 12.65793999171404